Regional Weather Roundup
Issued by NWS Huntsville, AL

Home | Current Version | Previous Version | Text Only | Print | Product List | Glossary On
Versions: 1 2 3 4 5 6 7 8 9 10 11 12 13 14 15 16 17 18 19 20 21 22 23 24 25 26 27 28 29
000
ASUS44 KHUN 301410
RWRHUN

WEATHER ROUNDUP FOR THE TENNESSEE VALLEY
NATIONAL WEATHER SERVICE HUNTSVILLE AL
900 AM CDT THU OCT 30 2014

ALZ001>004-301500-
NORTHWEST ALABAMA

CITY           SKY/WX    TMP DP  RH WIND       PRES   REMARKS
COURTLAND HCN    N/A     45 N/A N/A CALM        N/A
RUSSELLVILLE     N/A     41 N/A N/A MISG        N/A
SHOALS AIRPORT SUNNY     49  43  80 CALM      30.18R
SHOALS TVA RES   N/A     46 N/A N/A MISG        N/A
$$

ALZ005>007-016-301500-
NORTH CENTRAL ALABAMA

CITY           SKY/WX    TMP DP  RH WIND       PRES   REMARKS
CULLMAN AG STN   N/A     46 N/A N/A CALM        N/A
DECATUR AP     SUNNY     50  41  71 N3        30.17R
HUNTSVILLE AP  SUNNY     50  42  74 CALM      30.15R
HUN NWS/UAH      N/A     52  39  62 NE2         N/A
MERIDIANVILLE  SUNNY     45  37  76 N3        30.15S
REDSTONE ARSN  SUNNY     50  43  77 NW2       30.14S
VINEMONT AP    FAIR      46  42  85 CALM      30.16S
$$

ALZ008>010-301500-
NORTHEAST ALABAMA

CITY           SKY/WX    TMP DP  RH WIND       PRES   REMARKS
ALBERTVILLE    MOSUNNY   46  46 100 CALM      30.14R
FORT PAYNE     SUNNY     41  37  87 CALM      30.14S
SCOTTSBORO AP  FOG       43  43 100 CALM      30.16S VSB<1/4
SCOTTSBORO HCN   N/A     43 N/A N/A MISG        N/A
VALLEY HEAD      N/A     37 N/A N/A MISG        N/A
$$

TNZ076-096-097-301500-
SOUTHEASTERN MIDDLE TENNESSEE

CITY           SKY/WX    TMP DP  RH WIND       PRES   REMARKS
TULLAHOMA      SUNNY     45  39  81 CALM      30.15S
WINCHESTER     SUNNY     45  41  87 CALM      30.15S
$$

...SURROUNDING SITES...

CITY           SKY/WX    TMP DP  RH WIND       PRES   REMARKS
ATLANTA        MOSUNNY   54  42  64 N7        30.09R
ANNISTON       FOG       44  43  96 CALM      30.14R VSB 3/4
BIRMINGHAM     SUNNY     51  45  79 CALM      30.16R
CHATTANOOGA    SUNNY     52  43  71 N5        30.14S
CORINTH        FAIR      45  43  93 CALM      30.18S
DALTON         SUNNY     46  45  93 CALM      30.13R
GADSDEN        SUNNY     48  41  76 CALM      30.15S
GOLDEN TRNGL   SUNNY     48  45  87 CALM      30.16R
HALEYVILLE     FAIR      47  43  86 CALM      30.18R
JACKSON TN     SUNNY     46  42  86 CALM      30.18R
MEMPHIS        SUNNY     50  41  71 E7        30.17S
MURFREESBORO   FAIR      45  40  82 N3        30.17R
NASHVILLE      SUNNY     49  41  74 N5        30.18R
OXFORD MS      FAIR      45  45 100 CALM      30.19R
ROME           SUNNY     51  44  77 CALM      30.12S
SAVANNAH       SUNNY     41  41 100 CALM      30.17S
TUPELO         SUNNY     49  44  83 NE3       30.17R
TUSCALOOSA     SUNNY     51  45  79 N3        30.16R
$$

...GULF COAST WEATHER...

CITY           SKY/WX    TMP DP  RH WIND       PRES   REMARKS
GULFPORT       SUNNY     60  44  55 N8        30.11R
PASCAGOULA     SUNNY     60  48  64 N8        30.11R
MOBILE         MOSUNNY   59  48  67 N9        30.11R
GULF SHORES    SUNNY     62  51  66 NE7       30.08R
PENSACOLA      MOSUNNY   64  51  62 NE14G21   30.07R
DESTIN         MOSUNNY   63  49  60 NE12G24   30.07R
PANAMA CITY    DRIZZLE   62  55  77 NE9G17    30.04S
APPALACHICOLA  MOSUNNY   67  55  65 NE13      30.01S
$$




USA.gov is the U.S. government's official web portal to all federal, state and local government web resources and services.